�搅�E���B���j�^�v������
Date,Time,�搅(cps),���B(cps),���J
2023/08/29,00:00,8.0,5.0,��
2023/08/29,00:10,7.9,4.9,��
2023/08/29,00:20,7.7,5.0,��
2023/08/29,00:30,7.8,5.0,��
2023/08/29,00:40,7.9,5.0,��
2023/08/29,00:50,7.8,4.9,��
2023/08/29,01:00,8.0,4.8,��
2023/08/29,01:10,7.8,5.0,�L
2023/08/29,01:20,7.9,5.0,�L
2023/08/29,01:30,7.8,5.0,�L
2023/08/29,01:40,7.9,5.1,�L
2023/08/29,01:50,7.8,5.1,��
2023/08/29,02:00,7.8,5.1,��
2023/08/29,02:10,7.8,5.0,�L
2023/08/29,02:20,7.9,5.0,�L
2023/08/29,02:30,7.9,5.0,��
2023/08/29,02:40,7.8,5.1,��
2023/08/29,02:50,7.8,5.0,��
2023/08/29,03:00,7.9,5.1,��
2023/08/29,03:10,7.7,5.0,��
2023/08/29,03:20,7.9,5.0,��
2023/08/29,03:30,7.9,5.0,��
2023/08/29,03:40,7.8,4.9,��
2023/08/29,03:50,7.8,5.1,��
2023/08/29,04:00,7.9,5.1,��
2023/08/29,04:10,7.9,4.9,��
2023/08/29,04:20,8.0,4.9,��
2023/08/29,04:30,8.0,5.0,��
2023/08/29,04:40,7.9,5.0,��
2023/08/29,04:50,7.9,4.9,��
2023/08/29,05:00,7.9,4.9,��
2023/08/29,05:10,7.9,4.8,��
2023/08/29,05:20,7.8,5.1,��
2023/08/29,05:30,7.9,5.0,��
2023/08/29,05:40,7.9,5.0,��
2023/08/29,05:50,7.9,5.1,��
2023/08/29,06:00,7.9,5.0,��
2023/08/29,06:10,8.0,5.0,��
2023/08/29,06:20,7.8,5.1,��
2023/08/29,06:30,8.0,5.0,��
2023/08/29,06:40,7.9,5.0,��
2023/08/29,06:50,8.1,5.0,��
2023/08/29,07:00,7.9,5.1,��
2023/08/29,07:10,7.9,5.0,��
2023/08/29,07:20,8.0,4.9,��
2023/08/29,07:30,8.1,5.0,��
2023/08/29,07:40,8.1,5.1,��
2023/08/29,07:50,8.1,5.2,��
2023/08/29,08:00,8.1,5.1,��
2023/08/29,08:10,8.1,5.1,��
2023/08/29,08:20,8.0,5.1,��
2023/08/29,08:30,8.2,5.3,��
2023/08/29,08:40,8.1,5.2,��
2023/08/29,08:50,8.1,5.3,��
2023/08/29,09:00,7.9,5.4,��
2023/08/29,09:10,8.1,5.1,��
2023/08/29,09:20,8.2,5.1,��
2023/08/29,09:30,8.0,5.2,��
2023/08/29,09:40,8.1,5.3,��
2023/08/29,09:50,8.0,5.0,��
2023/08/29,10:00,8.0,5.2,��
2023/08/29,10:10,8.2,5.3,��
2023/08/29,10:20,8.4,5.4,��
2023/08/29,10:30,7.9,5.2,��
2023/08/29,10:40,8.1,5.2,��
2023/08/29,10:50,8.1,5.2,��
2023/08/29,11:00,7.9,5.1,��
2023/08/29,11:10,8.2,5.2,��
2023/08/29,11:20,8.1,5.1,��
2023/08/29,11:30,7.9,5.2,��
2023/08/29,11:40,8.0,5.2,��
2023/08/29,11:50,7.9,5.1,��
2023/08/29,12:00,7.8,5.1,��
2023/08/29,12:10,7.9,5.1,��
2023/08/29,12:20,7.9,5.1,��
2023/08/29,12:30,8.0,5.0,��
2023/08/29,12:40,8.0,5.1,��
2023/08/29,12:50,7.7,5.2,��
2023/08/29,13:00,7.9,5.1,��
2023/08/29,13:10,7.9,5.0,��
2023/08/29,13:20,7.9,5.0,��
2023/08/29,13:30,7.9,5.0,��
2023/08/29,13:40,7.8,5.1,��
2023/08/29,13:50,7.9,5.1,��
2023/08/29,14:00,7.8,5.2,��
2023/08/29,14:10,7.8,5.1,��
2023/08/29,14:20,7.7,4.9,��
2023/08/29,14:30,7.8,5.0,��
2023/08/29,14:40,7.7,4.9,��
2023/08/29,14:50,7.8,5.1,��
2023/08/29,15:00,7.9,5.1,��
2023/08/29,15:10,7.9,4.9,��
2023/08/29,15:20,7.9,4.9,��
2023/08/29,15:30,7.8,5.1,��
2023/08/29,15:40,7.7,5.1,��
2023/08/29,15:50,7.6,4.9,��
2023/08/29,16:00,7.8,5.2,��
2023/08/29,16:10,7.7,5.0,��
2023/08/29,16:20,7.8,5.0,��
2023/08/29,16:30,7.7,5.0,��
2023/08/29,16:40,7.7,4.9,��
2023/08/29,16:50,7.8,5.0,��
2023/08/29,17:00,7.7,5.0,��
2023/08/29,17:10,7.7,5.0,��
2023/08/29,17:20,7.8,5.1,��
2023/08/29,17:30,7.7,5.0,��
2023/08/29,17:40,7.8,4.9,��
2023/08/29,17:50,7.8,5.0,��
2023/08/29,18:00,7.8,5.0,��
2023/08/29,18:10,7.8,5.0,��
2023/08/29,18:20,7.8,4.9,��
2023/08/29,18:30,7.8,5.1,��
2023/08/29,18:40,7.6,4.9,��
2023/08/29,18:50,7.7,5.0,��
2023/08/29,19:00,7.8,5.0,��
2023/08/29,19:10,8.0,5.0,��
2023/08/29,19:20,7.7,4.8,��
2023/08/29,19:30,7.7,5.0,��
2023/08/29,19:40,7.8,5.0,��
2023/08/29,19:50,7.6,5.1,��
2023/08/29,20:00,7.8,4.9,��
2023/08/29,20:10,7.7,5.0,��
2023/08/29,20:20,7.7,5.0,��
2023/08/29,20:30,7.5,5.0,��
2023/08/29,20:40,7.7,5.0,��
2023/08/29,20:50,7.8,5.1,��
2023/08/29,21:00,7.8,5.1,��
2023/08/29,21:10,7.8,5.0,��
2023/08/29,21:20,7.8,5.1,��
2023/08/29,21:30,7.7,4.9,��
2023/08/29,21:40,7.6,5.1,��
2023/08/29,21:50,7.8,5.0,��
2023/08/29,22:00,7.8,4.9,��
2023/08/29,22:10,7.8,5.1,��
2023/08/29,22:20,7.6,5.0,��
2023/08/29,22:30,7.8,4.8,��
2023/08/29,22:40,7.7,5.0,��
2023/08/29,22:50,7.7,5.1,��
2023/08/29,23:00,7.7,5.0,��
2023/08/29,23:10,7.8,4.9,��
2023/08/29,23:20,8.1,5.1,��
2023/08/29,23:30,7.9,5.1,��
2023/08/29,23:40,7.9,5.0,��
2023/08/29,23:50,7.8,5.2,��
